Starlink 30375

operational
NORAD ID: 57732 Int'l Des: 2023-131 Owner: SPXS Country: US Constellation: starlink
LEOCIRCULAR

关于 Starlink 30375

正在加载描述...

实时位置

正在加载3D地球...

即将过境

高度历史

Altitude vs Time

uPlot chart will show altitude changes over time

两行轨道根数

1 57732U 23131A 25351.07596209 .00001693 00000-0 14036-3 0 9994
2 57732 43.0032 248.1996 0001181 272.9582 87.1125 15.02541834127651
Epoch: Dec 17, 2025 • Age: 19 hours

当前状态

高度 570.8 km
速度 7.58 km/s
星下点 -41.21°S, 138.58°E
发射日期 Sep 1, 2023
运行时间 2.2 years
类型 internet

技术详情

分类 Payload
质量 730.00 kg
干质量 700.00 kg
总质量 730.00 kg
长度 0.30 m
直径 4.10 m
跨度 29.00 m
形状 Box + pan
制造商 SPXS
平台类型 Starlink V2M
阶段状态 In Orbit
所有者/国家 SPXS/US

大型星座

Loading constellations...